Location: Rounton
(54.4000°N, 1.3500°W)
Time: 13:09:44
(UTC+00:00)

Transit 2A - Pass Details

Date: 03 December 2021
Orbit: 591 x 967 km, 66.7° (Epoch: 17 January)

Event Time Altitude Azimuth Distance (km) Brightness Sun altitude
Rises 22:39:59 0° 152° (SSE) 3,343 - -54.8°
Reaches altitude 10° 22:43:45 10° 126° (SE) 2,500 - -55.1°
Maximum altitude 22:46:19 13° 100° (E) 2,335 - -55.3°
Drops below altitude 10° 22:48:57 10° 74° (ENE) 2,605 - -55.5°
Sets 22:53:02 0° 49° (NE) 3,612 - -55.7°
